Volver al catálogo

DELTA 1 DEB

ActivoSSO
NORAD 12203·DEBRIS·🇺🇸 United States

Lanzado Mar 5, 1978 desde Vandenberg Space Force Base

Loading…

Próximos Pases (próximas 24 horas)

TLE

ActualizadoSource: Space-Track

Época: Sep 14, 2026, 19:39 UTC

1 12203U 78026AU  26257.81891758  .00000478  00000-0  16285-3 0  9994
2 12203  98.6265 284.1652 0059077 283.1318 250.9396 14.40048499377057

Sigue DELTA 1 DEB en tiempo real con AllMySat

Download on the App Store